Year,Month,Day,Hour,Minute,Value (Times are PST for temperature in C)
2018,04,19,00,00,6.60
2018,04,19,00,01,6.60
2018,04,19,00,02,6.60
2018,04,19,00,03,6.60
2018,04,19,00,04,6.50
2018,04,19,00,05,6.50
2018,04,19,00,06,6.50
2018,04,19,00,07,6.40
2018,04,19,00,08,6.40
2018,04,19,00,09,6.40
2018,04,19,00,10,6.40
2018,04,19,00,11,6.30
2018,04,19,00,12,6.30
2018,04,19,00,13,6.30
2018,04,19,00,14,6.30
2018,04,19,00,15,6.30
2018,04,19,00,16,6.20
2018,04,19,00,17,6.20
2018,04,19,00,18,6.20
2018,04,19,00,19,6.20
2018,04,19,00,20,6.20
2018,04,19,00,21,6.10
2018,04,19,00,22,6.10
2018,04,19,00,23,6.10
2018,04,19,00,24,6.10
2018,04,19,00,25,6.10
2018,04,19,00,26,6.10
2018,04,19,00,27,6.10
2018,04,19,00,28,6.00
2018,04,19,00,29,6.00
2018,04,19,00,30,6.00
2018,04,19,00,31,6.00
2018,04,19,00,32,6.00
2018,04,19,00,33,5.90
2018,04,19,00,34,5.90
2018,04,19,00,35,5.90
2018,04,19,00,36,5.90
2018,04,19,00,37,5.90
2018,04,19,00,38,5.90
2018,04,19,00,39,5.90
2018,04,19,00,40,5.90
2018,04,19,00,41,5.90
2018,04,19,00,42,5.90
2018,04,19,00,43,5.90
2018,04,19,00,44,5.90
2018,04,19,00,45,5.90
2018,04,19,00,46,5.90
2018,04,19,00,47,5.90
2018,04,19,00,48,5.90
2018,04,19,00,49,5.90
2018,04,19,00,50,5.90
2018,04,19,00,51,5.90
2018,04,19,00,52,5.90
2018,04,19,00,53,5.90
2018,04,19,00,54,6.00
2018,04,19,00,55,6.00
2018,04,19,00,56,6.00
2018,04,19,00,57,6.00
2018,04,19,00,58,6.00
2018,04,19,00,59,6.00
2018,04,19,01,00,6.00
2018,04,19,01,01,6.00
2018,04,19,01,02,6.00
2018,04,19,01,03,6.00
2018,04,19,01,04,6.00
2018,04,19,01,05,6.00
2018,04,19,01,06,6.00
2018,04,19,01,07,6.00
2018,04,19,01,08,6.00
2018,04,19,01,09,6.00
2018,04,19,01,10,6.00
2018,04,19,01,11,5.90
2018,04,19,01,12,5.90
2018,04,19,01,13,5.90
2018,04,19,01,14,5.90
2018,04,19,01,15,5.90
2018,04,19,01,16,5.90
2018,04,19,01,17,5.90
2018,04,19,01,18,5.90
2018,04,19,01,19,5.90
2018,04,19,01,20,5.80
2018,04,19,01,21,5.80
2018,04,19,01,22,5.80
2018,04,19,01,23,5.80
2018,04,19,01,24,5.80
2018,04,19,01,25,5.80
2018,04,19,01,26,5.80
2018,04,19,01,27,5.80
2018,04,19,01,28,5.80
2018,04,19,01,29,5.80
2018,04,19,01,30,5.80
2018,04,19,01,31,5.80
2018,04,19,01,32,5.90
2018,04,19,01,33,5.90
2018,04,19,01,34,5.90
2018,04,19,01,35,5.90
2018,04,19,01,36,6.00
2018,04,19,01,37,6.00
2018,04,19,01,38,6.10
2018,04,19,01,39,6.10
2018,04,19,01,40,6.10
2018,04,19,01,41,6.20
2018,04,19,01,42,6.20
2018,04,19,01,43,6.20
2018,04,19,01,44,6.20
2018,04,19,01,45,6.20
2018,04,19,01,46,6.20
2018,04,19,01,47,6.20
2018,04,19,01,48,6.20
2018,04,19,01,49,6.30
2018,04,19,01,50,6.30
2018,04,19,01,51,6.30
2018,04,19,01,52,6.30
2018,04,19,01,53,6.30
2018,04,19,01,54,6.30
2018,04,19,01,55,6.30
2018,04,19,01,56,6.30
2018,04,19,01,57,6.30
2018,04,19,01,58,6.30
2018,04,19,01,59,6.30
2018,04,19,02,00,6.40
2018,04,19,02,01,6.40
2018,04,19,02,02,6.40
2018,04,19,02,03,6.40
2018,04,19,02,04,6.40
2018,04,19,02,05,6.40
2018,04,19,02,06,6.40
2018,04,19,02,07,6.40
2018,04,19,02,08,6.40
2018,04,19,02,09,6.40
2018,04,19,02,10,6.40
2018,04,19,02,11,6.40
2018,04,19,02,12,6.40
2018,04,19,02,13,6.40
2018,04,19,02,14,6.40
2018,04,19,02,15,6.40
2018,04,19,02,16,6.40
2018,04,19,02,17,6.40
2018,04,19,02,18,6.40
2018,04,19,02,19,6.40
2018,04,19,02,20,6.40
2018,04,19,02,21,6.40
2018,04,19,02,22,6.40
2018,04,19,02,23,6.40
2018,04,19,02,24,6.40
2018,04,19,02,25,6.40
2018,04,19,02,26,6.40
2018,04,19,02,27,6.40
2018,04,19,02,28,6.40
2018,04,19,02,29,6.40
2018,04,19,02,30,6.40
2018,04,19,02,31,6.40
2018,04,19,02,32,6.40
2018,04,19,02,33,6.40
2018,04,19,02,34,6.40
2018,04,19,02,35,6.30
2018,04,19,02,36,6.30
2018,04,19,02,37,6.30
2018,04,19,02,38,6.30
2018,04,19,02,39,6.30
2018,04,19,02,40,6.30
2018,04,19,02,41,6.30
2018,04,19,02,42,6.30
2018,04,19,02,43,6.30
2018,04,19,02,44,6.30
2018,04,19,02,45,6.30
2018,04,19,02,46,6.30
2018,04,19,02,47,6.30
2018,04,19,02,48,6.20
2018,04,19,02,49,6.20
2018,04,19,02,50,6.20
2018,04,19,02,51,6.20
2018,04,19,02,52,6.20
2018,04,19,02,53,6.20
2018,04,19,02,54,6.20
2018,04,19,02,55,6.20
2018,04,19,02,56,6.10
2018,04,19,02,57,6.10
2018,04,19,02,58,6.10
2018,04,19,02,59,6.10
2018,04,19,03,00,6.10
2018,04,19,03,01,6.10
2018,04,19,03,02,6.10
2018,04,19,03,03,6.00
2018,04,19,03,04,6.00
2018,04,19,03,05,6.00
2018,04,19,03,06,6.00
2018,04,19,03,07,6.00
2018,04,19,03,08,5.90
2018,04,19,03,09,5.90
2018,04,19,03,10,5.90
2018,04,19,03,11,5.90
2018,04,19,03,12,5.90
2018,04,19,03,13,5.90
2018,04,19,03,14,5.90
2018,04,19,03,15,5.80
2018,04,19,03,16,5.80
2018,04,19,03,17,5.80
2018,04,19,03,18,5.80
2018,04,19,03,19,5.80
2018,04,19,03,20,5.80
2018,04,19,03,21,5.80
2018,04,19,03,22,5.80
2018,04,19,03,23,5.80
2018,04,19,03,24,5.80
2018,04,19,03,25,5.80
2018,04,19,03,26,5.80
2018,04,19,03,27,5.80
2018,04,19,03,28,5.80
2018,04,19,03,29,5.70
2018,04,19,03,30,5.70
2018,04,19,03,31,5.70
2018,04,19,03,32,5.70
2018,04,19,03,33,5.70
2018,04,19,03,34,5.70
2018,04,19,03,35,5.70
2018,04,19,03,36,5.70
2018,04,19,03,37,5.70
2018,04,19,03,38,5.70
2018,04,19,03,39,5.70
2018,04,19,03,40,5.70
2018,04,19,03,41,5.70
2018,04,19,03,42,5.70
2018,04,19,03,43,5.60
2018,04,19,03,44,5.60
2018,04,19,03,45,5.60
2018,04,19,03,46,5.60
2018,04,19,03,47,5.60
2018,04,19,03,48,5.60
2018,04,19,03,49,5.60
2018,04,19,03,50,5.60
2018,04,19,03,51,5.60
2018,04,19,03,52,5.60
2018,04,19,03,53,5.60
2018,04,19,03,54,5.60
2018,04,19,03,55,5.50
2018,04,19,03,56,5.50
2018,04,19,03,57,5.50
2018,04,19,03,58,5.50
2018,04,19,03,59,5.40
2018,04,19,04,00,5.40
2018,04,19,04,01,5.40
2018,04,19,04,02,5.40
2018,04,19,04,03,5.40
2018,04,19,04,04,5.30
2018,04,19,04,05,5.30
2018,04,19,04,06,5.30
2018,04,19,04,07,5.30
2018,04,19,04,08,5.20
2018,04,19,04,09,5.20
2018,04,19,04,10,5.20
2018,04,19,04,11,5.20
2018,04,19,04,12,5.10
2018,04,19,04,13,5.10
2018,04,19,04,14,5.10
2018,04,19,04,15,5.10
2018,04,19,04,16,5.10
2018,04,19,04,17,5.00
2018,04,19,04,18,5.00
2018,04,19,04,19,5.00
2018,04,19,04,20,5.00
2018,04,19,04,21,4.90
2018,04,19,04,22,4.90
2018,04,19,04,23,4.90
2018,04,19,04,24,4.90
2018,04,19,04,25,4.90
2018,04,19,04,26,4.80
2018,04,19,04,27,4.80
2018,04,19,04,28,4.80
2018,04,19,04,29,4.80
2018,04,19,04,30,4.80
2018,04,19,04,31,4.80
2018,04,19,04,32,4.80
2018,04,19,04,33,4.80
2018,04,19,04,34,4.70
2018,04,19,04,35,4.70
2018,04,19,04,36,4.70
2018,04,19,04,37,4.70
2018,04,19,04,38,4.70
2018,04,19,04,39,4.70
2018,04,19,04,40,4.70
2018,04,19,04,41,4.60
2018,04,19,04,42,4.60
2018,04,19,04,43,4.60
2018,04,19,04,44,4.60
2018,04,19,04,45,4.60
2018,04,19,04,46,4.60
2018,04,19,04,47,4.50
2018,04,19,04,48,4.50
2018,04,19,04,49,4.50
2018,04,19,04,50,4.50
2018,04,19,04,51,4.50
2018,04,19,04,52,4.40
2018,04,19,04,53,4.40
2018,04,19,04,54,4.40
2018,04,19,04,55,4.40
2018,04,19,04,56,4.40
2018,04,19,04,57,4.40
2018,04,19,04,58,4.40
2018,04,19,04,59,4.30
2018,04,19,05,00,4.30
2018,04,19,05,01,4.30
2018,04,19,05,02,4.30
2018,04,19,05,03,4.30
2018,04,19,05,04,4.30
2018,04,19,05,05,4.20
2018,04,19,05,06,4.20
2018,04,19,05,07,4.20
2018,04,19,05,08,4.20
2018,04,19,05,09,4.10
2018,04,19,05,10,4.10
2018,04,19,05,11,4.10
2018,04,19,05,12,4.10
2018,04,19,05,13,4.10
2018,04,19,05,14,4.10
2018,04,19,05,15,4.00
2018,04,19,05,16,4.00
2018,04,19,05,17,4.00
2018,04,19,05,18,4.00
2018,04,19,05,19,4.00
2018,04,19,05,20,3.90
2018,04,19,05,21,3.90
2018,04,19,05,22,3.90
2018,04,19,05,23,3.90
2018,04,19,05,24,3.90
2018,04,19,05,25,3.90
2018,04,19,05,26,3.90
2018,04,19,05,27,3.90
2018,04,19,05,28,3.80
2018,04,19,05,29,3.80
2018,04,19,05,30,3.80
2018,04,19,05,31,3.80
2018,04,19,05,32,3.80
2018,04,19,05,33,3.80
2018,04,19,05,34,3.70
2018,04,19,05,35,3.70
2018,04,19,05,36,3.70
2018,04,19,05,37,3.70
2018,04,19,05,38,3.70
2018,04,19,05,39,3.70
2018,04,19,05,40,3.70
2018,04,19,05,41,3.70
2018,04,19,05,42,3.70
2018,04,19,05,43,3.60
2018,04,19,05,44,3.60
2018,04,19,05,45,3.60
2018,04,19,05,46,3.60
2018,04,19,05,47,3.60
2018,04,19,05,48,3.60
2018,04,19,05,49,3.60
2018,04,19,05,50,3.60
2018,04,19,05,51,3.60
2018,04,19,05,52,3.50
2018,04,19,05,53,3.50
2018,04,19,05,54,3.50
2018,04,19,05,55,3.50
2018,04,19,05,56,3.50
2018,04,19,05,57,3.50
2018,04,19,05,58,3.50
2018,04,19,05,59,3.40
2018,04,19,06,00,3.40
2018,04,19,06,01,3.40
2018,04,19,06,02,3.40
2018,04,19,06,03,3.40
2018,04,19,06,04,3.40
2018,04,19,06,05,3.40
2018,04,19,06,06,3.40
2018,04,19,06,07,3.40
2018,04,19,06,08,3.30
2018,04,19,06,09,3.30
2018,04,19,06,10,3.30
2018,04,19,06,11,3.30
2018,04,19,06,12,3.30
2018,04,19,06,13,3.30
2018,04,19,06,14,3.30
2018,04,19,06,15,3.30
2018,04,19,06,16,3.30
2018,04,19,06,17,3.30
2018,04,19,06,18,3.30
2018,04,19,06,19,3.30
2018,04,19,06,20,3.30
2018,04,19,06,21,3.30
2018,04,19,06,22,3.30
2018,04,19,06,23,3.30
2018,04,19,06,24,3.30
2018,04,19,06,25,3.30
2018,04,19,06,26,3.30
2018,04,19,06,27,3.30
2018,04,19,06,28,3.30
2018,04,19,06,29,3.30
2018,04,19,06,30,3.30
2018,04,19,06,31,3.30
2018,04,19,06,32,3.30
2018,04,19,06,33,3.30
2018,04,19,06,34,3.30
2018,04,19,06,35,3.30
2018,04,19,06,36,3.30
2018,04,19,06,37,3.30
2018,04,19,06,38,3.30
2018,04,19,06,39,3.30
2018,04,19,06,40,3.30
2018,04,19,06,41,3.30
2018,04,19,06,42,3.30
2018,04,19,06,43,3.30
2018,04,19,06,44,3.30
2018,04,19,06,45,3.30
2018,04,19,06,46,3.20
2018,04,19,06,47,3.20
2018,04,19,06,48,3.20
2018,04,19,06,49,3.20
2018,04,19,06,50,3.20
2018,04,19,06,51,3.20
2018,04,19,06,52,3.30
2018,04,19,06,53,3.30
2018,04,19,06,54,3.30
2018,04,19,06,55,3.30
2018,04,19,06,56,3.30
2018,04,19,06,57,3.30
2018,04,19,06,58,3.30
2018,04,19,06,59,3.30
2018,04,19,07,00,3.30
2018,04,19,07,01,3.40
2018,04,19,07,02,3.40
2018,04,19,07,03,3.40
2018,04,19,07,04,3.40
2018,04,19,07,05,3.40
2018,04,19,07,06,3.50
2018,04,19,07,07,3.50
2018,04,19,07,08,3.50
2018,04,19,07,09,3.60
2018,04,19,07,10,3.60
2018,04,19,07,11,3.60
2018,04,19,07,12,3.70
2018,04,19,07,13,3.70
2018,04,19,07,14,3.70
2018,04,19,07,15,3.80
2018,04,19,07,16,3.80
2018,04,19,07,17,3.80
2018,04,19,07,18,3.90
2018,04,19,07,19,4.00
2018,04,19,07,20,4.00
2018,04,19,07,21,4.10
2018,04,19,07,22,4.10
2018,04,19,07,23,4.10
2018,04,19,07,24,4.20
2018,04,19,07,25,4.20
2018,04,19,07,26,4.30
2018,04,19,07,27,4.30
2018,04,19,07,28,4.40
2018,04,19,07,29,4.50
2018,04,19,07,30,4.60
2018,04,19,07,31,4.70
2018,04,19,07,32,4.80
2018,04,19,07,33,4.80
2018,04,19,07,34,4.90
2018,04,19,07,35,5.00
2018,04,19,07,36,5.10
2018,04,19,07,37,5.10
2018,04,19,07,38,5.20
2018,04,19,07,39,5.30
2018,04,19,07,40,5.30
2018,04,19,07,41,5.40
2018,04,19,07,42,5.50
2018,04,19,07,43,5.60
2018,04,19,07,44,5.60
2018,04,19,07,45,5.70
2018,04,19,07,46,5.80
2018,04,19,07,47,5.80
2018,04,19,07,48,5.90
2018,04,19,07,49,5.90
2018,04,19,07,50,6.00
2018,04,19,07,51,6.00
2018,04,19,07,52,6.10
2018,04,19,07,53,6.20
2018,04,19,07,54,6.20
2018,04,19,07,55,6.30
2018,04,19,07,56,6.30
2018,04,19,07,57,6.40
2018,04,19,07,58,6.50
2018,04,19,07,59,6.60
2018,04,19,08,00,6.70
2018,04,19,08,01,6.70
2018,04,19,08,02,6.80
2018,04,19,08,03,6.90
2018,04,19,08,04,6.90
2018,04,19,08,05,7.00
2018,04,19,08,06,7.10
2018,04,19,08,07,7.20
2018,04,19,08,08,7.30
2018,04,19,08,09,7.30
2018,04,19,08,10,7.40
2018,04,19,08,11,7.40
2018,04,19,08,12,7.40
2018,04,19,08,13,7.50
2018,04,19,08,14,7.60
2018,04,19,08,15,7.60
2018,04,19,08,16,7.70
2018,04,19,08,17,7.80
2018,04,19,08,18,7.80
2018,04,19,08,19,7.90
2018,04,19,08,20,8.00
2018,04,19,08,21,8.00
2018,04,19,08,22,8.10
2018,04,19,08,23,8.20
2018,04,19,08,24,8.20
2018,04,19,08,25,8.30
2018,04,19,08,26,8.30
2018,04,19,08,27,8.40
2018,04,19,08,28,8.40
2018,04,19,08,29,8.50
2018,04,19,08,30,8.60
2018,04,19,08,31,8.60
2018,04,19,08,32,8.60
2018,04,19,08,33,8.70
2018,04,19,08,34,8.70
2018,04,19,08,35,8.80
2018,04,19,08,36,8.80
2018,04,19,08,37,8.90
2018,04,19,08,38,8.90
2018,04,19,08,39,8.90
2018,04,19,08,40,9.00
2018,04,19,08,41,9.00
2018,04,19,08,42,9.10
2018,04,19,08,43,9.10
2018,04,19,08,44,9.20
2018,04,19,08,45,9.20
2018,04,19,08,46,9.30
2018,04,19,08,47,9.30
2018,04,19,08,48,9.40
2018,04,19,08,49,9.40
2018,04,19,08,50,9.50
2018,04,19,08,51,9.50
2018,04,19,08,52,9.60
2018,04,19,08,53,9.60
2018,04,19,08,54,9.70
2018,04,19,08,55,9.70
2018,04,19,08,56,9.80
2018,04,19,08,57,9.80
2018,04,19,08,58,9.80
2018,04,19,08,59,9.90
2018,04,19,09,00,9.90
2018,04,19,09,01,10.00
2018,04,19,09,02,10.00
2018,04,19,09,03,10.10
2018,04,19,09,04,10.10
2018,04,19,09,05,10.10
2018,04,19,09,06,10.20
2018,04,19,09,07,10.20
2018,04,19,09,08,10.20
2018,04,19,09,09,10.30
2018,04,19,09,10,10.30
2018,04,19,09,11,10.30
2018,04,19,09,12,10.40
2018,04,19,09,13,10.50
2018,04,19,09,14,10.50
2018,04,19,09,15,10.60
2018,04,19,09,16,10.60
2018,04,19,09,17,10.60
2018,04,19,09,18,10.70
2018,04,19,09,19,10.70
2018,04,19,09,20,10.70
2018,04,19,09,21,10.80
2018,04,19,09,22,10.80
2018,04,19,09,23,10.80
2018,04,19,09,24,10.90
2018,04,19,09,25,10.90
2018,04,19,09,26,10.90
2018,04,19,09,27,11.00
2018,04,19,09,28,11.00
2018,04,19,09,29,11.10
2018,04,19,09,30,11.10
2018,04,19,09,31,11.10
2018,04,19,09,32,11.10
2018,04,19,09,33,11.10
2018,04,19,09,34,11.10
2018,04,19,09,35,11.20
2018,04,19,09,36,11.20
2018,04,19,09,37,11.20
2018,04,19,09,38,11.20
2018,04,19,09,39,11.30
2018,04,19,09,40,11.30
2018,04,19,09,41,11.40
2018,04,19,09,42,11.40
2018,04,19,09,43,11.50
2018,04,19,09,44,11.50
2018,04,19,09,45,11.60
2018,04,19,09,46,11.60
2018,04,19,09,47,11.60
2018,04,19,09,48,11.70
2018,04,19,09,49,11.70
2018,04,19,09,50,11.70
2018,04,19,09,51,11.70
2018,04,19,09,52,11.70
2018,04,19,09,53,11.60
2018,04,19,09,54,11.60
2018,04,19,09,55,11.60
2018,04,19,09,56,11.60
2018,04,19,09,57,11.60
2018,04,19,09,58,11.70
2018,04,19,09,59,11.70
2018,04,19,10,00,11.70
2018,04,19,10,01,11.70
2018,04,19,10,02,11.60
2018,04,19,10,03,11.60
2018,04,19,10,04,11.60
2018,04,19,10,05,11.70
2018,04,19,10,06,11.70
2018,04,19,10,07,11.80
2018,04,19,10,08,11.80
2018,04,19,10,09,11.80
2018,04,19,10,10,11.90
2018,04,19,10,11,11.90
2018,04,19,10,12,12.00
2018,04,19,10,13,12.00
2018,04,19,10,14,12.10
2018,04,19,10,15,12.20
2018,04,19,10,16,12.20
2018,04,19,10,17,12.30
2018,04,19,10,18,12.30
2018,04,19,10,19,12.40
2018,04,19,10,20,12.40
2018,04,19,10,21,12.50
2018,04,19,10,22,12.50
2018,04,19,10,23,12.60
2018,04,19,10,24,12.60
2018,04,19,10,25,12.70
2018,04,19,10,26,12.70
2018,04,19,10,27,12.80
2018,04,19,10,28,12.80
2018,04,19,10,29,12.80
2018,04,19,10,30,12.80
2018,04,19,10,31,12.80
2018,04,19,10,32,12.80
2018,04,19,10,33,12.80
2018,04,19,10,34,12.80
2018,04,19,10,35,12.80
2018,04,19,10,36,12.80
2018,04,19,10,37,12.70
2018,04,19,10,38,12.70
2018,04,19,10,39,12.70
2018,04,19,10,40,12.70
2018,04,19,10,41,12.70
2018,04,19,10,42,12.80
2018,04,19,10,43,12.80
2018,04,19,10,44,12.80
2018,04,19,10,45,12.90
2018,04,19,10,46,12.90
2018,04,19,10,47,12.90
2018,04,19,10,48,12.90
2018,04,19,10,49,13.00
2018,04,19,10,50,13.10
2018,04,19,10,51,13.10
2018,04,19,10,52,13.20
2018,04,19,10,53,13.20
2018,04,19,10,54,13.30
2018,04,19,10,55,13.30
2018,04,19,10,56,13.30
2018,04,19,10,57,13.30
2018,04,19,10,58,13.30
2018,04,19,10,59,13.40
2018,04,19,11,00,13.40
2018,04,19,11,01,13.40
2018,04,19,11,02,13.50
2018,04,19,11,03,13.60
2018,04,19,11,04,13.60
2018,04,19,11,05,13.60
2018,04,19,11,06,13.70
2018,04,19,11,07,13.70
2018,04,19,11,08,13.80
2018,04,19,11,09,13.80
2018,04,19,11,10,13.80
2018,04,19,11,11,13.80
2018,04,19,11,12,13.90
2018,04,19,11,13,13.90
2018,04,19,11,14,14.00
2018,04,19,11,15,14.10
2018,04,19,11,16,14.10
2018,04,19,11,17,14.10
2018,04,19,11,18,14.10
2018,04,19,11,19,14.10
2018,04,19,11,20,14.10
2018,04,19,11,21,14.10
2018,04,19,11,22,14.10
2018,04,19,11,23,14.10
2018,04,19,11,24,14.10
2018,04,19,11,25,14.10
2018,04,19,11,26,14.10
2018,04,19,11,27,14.10
2018,04,19,11,28,14.10
2018,04,19,11,29,14.00
2018,04,19,11,30,14.00
2018,04,19,11,31,14.00
2018,04,19,11,32,14.00
2018,04,19,11,33,14.00
2018,04,19,11,34,14.00
2018,04,19,11,35,14.00
2018,04,19,11,36,14.00
2018,04,19,11,37,14.00
2018,04,19,11,38,14.00
2018,04,19,11,39,14.00
2018,04,19,11,40,14.00
2018,04,19,11,41,14.00
2018,04,19,11,42,14.00
2018,04,19,11,43,14.10
2018,04,19,11,44,14.10
2018,04,19,11,45,14.10
2018,04,19,11,46,14.10
2018,04,19,11,47,14.10
2018,04,19,11,48,14.20
2018,04,19,11,49,14.20
2018,04,19,11,50,14.20
2018,04,19,11,51,14.20
2018,04,19,11,52,14.30
2018,04,19,11,53,14.30
2018,04,19,11,54,14.30
2018,04,19,11,55,14.30
2018,04,19,11,56,14.30
2018,04,19,11,57,14.40
2018,04,19,11,58,14.40
2018,04,19,11,59,14.40
2018,04,19,12,00,14.40
2018,04,19,12,01,14.40
2018,04,19,12,02,14.50
2018,04,19,12,03,14.60
2018,04,19,12,04,14.60
2018,04,19,12,05,14.70
2018,04,19,12,06,14.70
2018,04,19,12,07,14.80
2018,04,19,12,08,14.80
2018,04,19,12,09,14.80
2018,04,19,12,10,14.80
2018,04,19,12,11,14.90
2018,04,19,12,12,14.90
2018,04,19,12,13,14.90
2018,04,19,12,14,14.80
2018,04,19,12,15,14.80
2018,04,19,12,16,14.80
2018,04,19,12,17,14.70
2018,04,19,12,18,14.70
2018,04,19,12,19,14.60
2018,04,19,12,20,14.60
2018,04,19,12,21,14.50
2018,04,19,12,22,14.40
2018,04,19,12,23,14.30
2018,04,19,12,24,14.10
2018,04,19,12,25,14.10
2018,04,19,12,26,14.10
2018,04,19,12,27,14.10
2018,04,19,12,28,14.20
2018,04,19,12,29,14.30
2018,04,19,12,30,14.30
2018,04,19,12,31,14.30
2018,04,19,12,32,14.30
2018,04,19,12,33,14.30
2018,04,19,12,34,14.40
2018,04,19,12,35,14.40
2018,04,19,12,36,14.40
2018,04,19,12,37,14.50
2018,04,19,12,38,14.50
2018,04,19,12,39,14.60
2018,04,19,12,40,14.60
2018,04,19,12,41,14.60
2018,04,19,12,42,14.60
2018,04,19,12,43,14.60
2018,04,19,12,44,14.60
2018,04,19,12,45,14.60
2018,04,19,12,46,14.60
2018,04,19,12,47,14.60
2018,04,19,12,48,14.60
2018,04,19,12,49,14.50
2018,04,19,12,50,14.50
2018,04,19,12,51,14.60
2018,04,19,12,52,14.60
2018,04,19,12,53,14.50
2018,04,19,12,54,14.40
2018,04,19,12,55,14.40
2018,04,19,12,56,14.40
2018,04,19,12,57,14.40
2018,04,19,12,58,14.40
2018,04,19,12,59,14.40
2018,04,19,13,00,14.40
2018,04,19,13,01,14.40
2018,04,19,13,02,14.40
2018,04,19,13,03,14.40
2018,04,19,13,04,14.50
2018,04,19,13,05,14.50
2018,04,19,13,06,14.40
2018,04,19,13,07,14.40
2018,04,19,13,08,14.30
2018,04,19,13,09,14.30
2018,04,19,13,10,14.20
2018,04,19,13,11,14.20
2018,04,19,13,12,14.30
2018,04,19,13,13,14.30
2018,04,19,13,14,14.30
2018,04,19,13,15,14.30
2018,04,19,13,16,14.40
2018,04,19,13,17,14.40
2018,04,19,13,18,14.40
2018,04,19,13,19,14.40
2018,04,19,13,20,14.40
2018,04,19,13,21,14.30
2018,04,19,13,22,14.30
2018,04,19,13,23,14.30
2018,04,19,13,24,14.30
2018,04,19,13,25,14.40
2018,04,19,13,26,14.40
2018,04,19,13,27,14.40
2018,04,19,13,28,14.40
2018,04,19,13,29,14.40
2018,04,19,13,30,14.40
2018,04,19,13,31,14.50
2018,04,19,13,32,14.50
2018,04,19,13,33,14.50
2018,04,19,13,34,14.50
2018,04,19,13,35,14.50
2018,04,19,13,36,14.50
2018,04,19,13,37,14.50
2018,04,19,13,38,14.50
2018,04,19,13,39,14.60
2018,04,19,13,40,14.60
2018,04,19,13,41,14.60
2018,04,19,13,42,14.60
2018,04,19,13,43,14.60
2018,04,19,13,44,14.60
2018,04,19,13,45,14.60
2018,04,19,13,46,14.50
2018,04,19,13,47,14.50
2018,04,19,13,48,14.50
2018,04,19,13,49,14.50
2018,04,19,13,50,14.60
2018,04,19,13,51,14.60
2018,04,19,13,52,14.60
2018,04,19,13,53,14.60
2018,04,19,13,54,14.60
2018,04,19,13,55,14.60
2018,04,19,13,56,14.70
2018,04,19,13,57,14.70
2018,04,19,13,58,14.70
2018,04,19,13,59,14.70
2018,04,19,14,00,14.70
2018,04,19,14,01,14.70
2018,04,19,14,02,14.70
2018,04,19,14,03,14.70
2018,04,19,14,04,14.70
2018,04,19,14,05,14.70
2018,04,19,14,06,14.70
2018,04,19,14,07,14.70
2018,04,19,14,08,14.70
2018,04,19,14,09,14.80
2018,04,19,14,10,14.80
2018,04,19,14,11,14.80
2018,04,19,14,12,14.90
2018,04,19,14,13,14.90
2018,04,19,14,14,14.90
2018,04,19,14,15,14.80
2018,04,19,14,16,14.80
2018,04,19,14,17,14.80
2018,04,19,14,18,14.70
2018,04,19,14,19,14.70
2018,04,19,14,20,14.70
2018,04,19,14,21,14.70
2018,04,19,14,22,14.70
2018,04,19,14,23,14.70
2018,04,19,14,24,14.70
2018,04,19,14,25,14.70
2018,04,19,14,26,14.70
2018,04,19,14,27,14.70
2018,04,19,14,28,14.70
2018,04,19,14,29,14.70
2018,04,19,14,30,14.70
2018,04,19,14,31,14.70
2018,04,19,14,32,14.70
2018,04,19,14,33,14.70
2018,04,19,14,34,14.70
2018,04,19,14,35,14.70
2018,04,19,14,36,14.70
2018,04,19,14,37,14.70
2018,04,19,14,38,14.70
2018,04,19,14,39,14.70
2018,04,19,14,40,14.70
2018,04,19,14,41,14.70
2018,04,19,14,42,14.70
2018,04,19,14,43,14.70
2018,04,19,14,44,14.70
2018,04,19,14,45,14.70
2018,04,19,14,46,14.70
2018,04,19,14,47,14.70
2018,04,19,14,48,14.70
2018,04,19,14,49,14.70
2018,04,19,14,50,14.70
2018,04,19,14,51,14.80
2018,04,19,14,52,14.80
2018,04,19,14,53,14.80
2018,04,19,14,54,14.80
2018,04,19,14,55,14.80
2018,04,19,14,56,14.70
2018,04,19,14,57,14.70
2018,04,19,14,58,14.60
2018,04,19,14,59,14.60
2018,04,19,15,00,14.60
2018,04,19,15,01,14.60
2018,04,19,15,02,14.60
2018,04,19,15,03,14.60
2018,04,19,15,04,14.60
2018,04,19,15,05,14.60
2018,04,19,15,06,14.60
2018,04,19,15,07,14.60
2018,04,19,15,08,14.60
2018,04,19,15,09,14.60
2018,04,19,15,10,14.60
2018,04,19,15,11,14.60
2018,04,19,15,12,14.60
2018,04,19,15,13,14.60
2018,04,19,15,14,14.60
2018,04,19,15,15,14.60
2018,04,19,15,16,14.60
2018,04,19,15,17,14.70
2018,04,19,15,18,14.70
2018,04,19,15,19,14.70
2018,04,19,15,20,14.60
2018,04,19,15,21,14.60
2018,04,19,15,22,14.70
2018,04,19,15,23,14.70
2018,04,19,15,24,14.70
2018,04,19,15,25,14.60
2018,04,19,15,26,14.60
2018,04,19,15,27,14.60
2018,04,19,15,28,14.70
2018,04,19,15,29,14.70
2018,04,19,15,30,14.70
2018,04,19,15,31,14.70
2018,04,19,15,32,14.80
2018,04,19,15,33,14.80
2018,04,19,15,34,14.80
2018,04,19,15,35,14.80
2018,04,19,15,36,14.80
2018,04,19,15,37,14.80
2018,04,19,15,38,14.80
2018,04,19,15,39,14.80
2018,04,19,15,40,14.80
2018,04,19,15,41,14.90
2018,04,19,15,42,14.90
2018,04,19,15,43,14.90
2018,04,19,15,44,14.90
2018,04,19,15,45,14.90
2018,04,19,15,46,14.90
2018,04,19,15,47,14.90
2018,04,19,15,48,14.80
2018,04,19,15,49,14.80
2018,04,19,15,50,14.80
2018,04,19,15,51,14.80
2018,04,19,15,52,14.90
2018,04,19,15,53,14.90
2018,04,19,15,54,14.90
2018,04,19,15,55,14.90
2018,04,19,15,56,14.90
2018,04,19,15,57,14.90
2018,04,19,15,58,15.00
2018,04,19,15,59,15.00
2018,04,19,16,00,15.10
2018,04,19,16,01,15.10
2018,04,19,16,02,15.20
2018,04,19,16,03,15.20
2018,04,19,16,04,15.20
2018,04,19,16,05,15.20
2018,04,19,16,06,15.20
2018,04,19,16,07,15.10
2018,04,19,16,08,15.10
2018,04,19,16,09,15.00
2018,04,19,16,10,14.90
2018,04,19,16,11,14.90
2018,04,19,16,12,14.90
2018,04,19,16,13,14.90
2018,04,19,16,14,15.00
2018,04,19,16,15,15.00
2018,04,19,16,16,15.10
2018,04,19,16,17,15.20
2018,04,19,16,18,15.20
2018,04,19,16,19,15.30
2018,04,19,16,20,15.30
2018,04,19,16,21,15.40
2018,04,19,16,22,15.40
2018,04,19,16,23,15.50
2018,04,19,16,24,15.50
2018,04,19,16,25,15.60
2018,04,19,16,26,15.60
2018,04,19,16,27,15.60
2018,04,19,16,28,15.60
2018,04,19,16,29,15.60
2018,04,19,16,30,15.60
2018,04,19,16,31,15.70
2018,04,19,16,32,15.70
2018,04,19,16,33,15.70
2018,04,19,16,34,15.70
2018,04,19,16,35,15.70
2018,04,19,16,36,15.70
2018,04,19,16,37,15.70
2018,04,19,16,38,15.70
2018,04,19,16,39,15.70
2018,04,19,16,40,15.70
2018,04,19,16,41,15.70
2018,04,19,16,42,15.70
2018,04,19,16,43,15.70
2018,04,19,16,44,15.70
2018,04,19,16,45,15.70
2018,04,19,16,46,15.60
2018,04,19,16,47,15.50
2018,04,19,16,48,15.40
2018,04,19,16,49,15.40
2018,04,19,16,50,15.40
2018,04,19,16,51,15.50
2018,04,19,16,52,15.60
2018,04,19,16,53,15.60
2018,04,19,16,54,15.60
2018,04,19,16,55,15.70
2018,04,19,16,56,15.70
2018,04,19,16,57,15.80
2018,04,19,16,58,15.80
2018,04,19,16,59,15.80
2018,04,19,17,00,15.90
2018,04,19,17,01,15.90
2018,04,19,17,02,16.00
2018,04,19,17,03,16.00
2018,04,19,17,04,16.10
2018,04,19,17,05,16.10
2018,04,19,17,06,16.10
2018,04,19,17,07,16.10
2018,04,19,17,08,16.10
2018,04,19,17,09,16.10
2018,04,19,17,10,16.10
2018,04,19,17,11,16.10
2018,04,19,17,12,16.20
2018,04,19,17,13,16.20
2018,04,19,17,14,16.30
2018,04,19,17,15,16.30
2018,04,19,17,16,16.30
2018,04,19,17,17,16.30
2018,04,19,17,18,16.30
2018,04,19,17,19,16.40
2018,04,19,17,20,16.40
2018,04,19,17,21,16.40
2018,04,19,17,22,16.40
2018,04,19,17,23,16.40
2018,04,19,17,24,16.40
2018,04,19,17,25,16.40
2018,04,19,17,26,16.40
2018,04,19,17,27,16.40
2018,04,19,17,28,16.40
2018,04,19,17,29,16.40
2018,04,19,17,30,16.40
2018,04,19,17,31,16.40
2018,04,19,17,32,16.50
2018,04,19,17,33,16.50
2018,04,19,17,34,16.50
2018,04,19,17,35,16.60
2018,04,19,17,36,16.60
2018,04,19,17,37,16.50
2018,04,19,17,38,16.50
2018,04,19,17,39,16.50
2018,04,19,17,40,16.40
2018,04,19,17,41,16.40
2018,04,19,17,42,16.40